Key West, FL

10:29 PM EDT on June 28, 2017 (GMT -0400)
Key West International

Weather History for KEYW - February, 2013

Change the Weather History Date:

Tuesday, February 26, 2013

  Actual Average Record
Temperature  
Mean Temperature 80 °F 72 °F  
Max Temperature 82 °F 77 °F 85 °F (1991)
Min Temperature 77 °F 67 °F 49 °F (1967)
Degree Days  
Heating Degree Days 0 0  
Month to date heating degree days 7 19  
Since 1 July heating degree days 12 70  
Cooling Degree Days 15 7  
Month to date cooling degree days 230 169  
Year to date cooling degree days 521 334  
Growing Degree Days 30 (Base 50)    
Moisture  
Dew Point 73 °F    
Average Humidity 80    
Maximum Humidity 85    
Minimum Humidity 74    
Precipitation  
Precipitation 0.04 in 0.07 in 1.20 in (1877)
Month to date precipitation 0.85 1.37  
Year to date precipitation 1.14 3.41  
Snow  
Snow 0.00 in - - ()
Month to date snowfall 0.0  
Since 1 July snowfall 0.0  
Snow Depth 0.00 in    
Sea Level Pressure  
Sea Level Pressure 29.88 in    
Wind  
Wind Speed 11 mph (South)    
Max Wind Speed 22 mph    
Max Gust Speed 28 mph    
Visibility 10 miles    
Events Rain    
T = Trace of Precipitation, MM = Missing Value Source: NWS Daily Summary

Daily Weather History Graph

Daily Weather History Graph

Search for Another Location

Airport or City:

Trip Planner

Search our weather history database for the weather conditions in past years. The results will help you decide how hot, cold, wet, or windy it might be!

Date:

Astronomy

Feb. 26, 2013 Rise Set
Actual Time 6:51 AM EST 6:28 PM EST
Civil Twilight 6:29 AM EST 6:51 PM EST
Nautical Twilight 6:02 AM EST 7:17 PM EST
Astronomical Twilight 5:36 AM EST 7:43 PM EST
Moon 7:29 PM EST (2/26) 7:04 AM EST (2/26)
Length of Visible Light 12h 22m
Length of Day
11h 36m
Full, 99% of the Moon is Illuminated
Feb 26
Full
Mar 4
Last Quarter
Mar 11
New
Mar 19
First Quarter
Mar 27
Full

Hourly Weather History & Observations

Time (EST) Temp. Heat Index Dew Point Humidity Pressure Visibility Wind Dir Wind Speed Gust Speed Precip Events Conditions
12:53 AM 79.0 °F - 73.0 °F 82% 29.86 in 10.0 mi South 11.5 mph - N/A   Partly Cloudy
1:53 AM 78.1 °F - 72.0 °F 81% 29.84 in 10.0 mi South 13.8 mph - N/A   Scattered Clouds
2:53 AM 78.1 °F - 72.0 °F 81% 29.82 in 10.0 mi South 15.0 mph - N/A   Clear
3:53 AM 77.0 °F - 72.0 °F 84% 29.81 in 10.0 mi South 18.4 mph - N/A   Clear
4:53 AM 77.0 °F - 72.0 °F 84% 29.81 in 10.0 mi South 16.1 mph - N/A   Clear
5:53 AM 77.0 °F - 72.0 °F 84% 29.82 in 10.0 mi South 16.1 mph - N/A   Scattered Clouds
6:53 AM 77.0 °F - 72.0 °F 84% 29.83 in 10.0 mi South 17.3 mph - N/A   Partly Cloudy
7:53 AM 78.1 °F - 72.0 °F 81% 29.86 in 10.0 mi South 17.3 mph - N/A   Overcast
8:53 AM 79.0 °F - 73.0 °F 82% 29.86 in 10.0 mi South 15.0 mph 20.7 mph N/A   Scattered Clouds
9:53 AM 79.0 °F - 73.0 °F 82% 29.89 in 10.0 mi South 15.0 mph - N/A   Overcast
10:53 AM 79.0 °F - 73.0 °F 82% 29.89 in 8.0 mi South 18.4 mph 24.2 mph 0.00 in Rain Light Rain
11:06 AM 78.8 °F - 73.4 °F 83% 29.90 in 10.0 mi South 12.7 mph - 0.00 in   Overcast
11:38 AM 80.6 °F 86.2 °F 75.2 °F 84% 29.90 in 9.0 mi South 12.7 mph - 0.00 in   Scattered Clouds
11:53 AM 80.1 °F 84.5 °F 73.9 °F 81% 29.91 in 9.0 mi SSW 10.4 mph - 0.00 in   Clear
12:53 PM 81.0 °F 86.2 °F 73.9 °F 79% 29.90 in 10.0 mi South 8.1 mph - N/A   Partly Cloudy
1:53 PM 82.0 °F 87.4 °F 73.0 °F 74% 29.88 in 10.0 mi SSW 10.4 mph - N/A   Clear
2:53 PM 82.0 °F 87.4 °F 73.0 °F 74% 29.86 in 10.0 mi South 9.2 mph - N/A   Clear
3:53 PM 81.0 °F 85.8 °F 73.0 °F 77% 29.86 in 10.0 mi South 6.9 mph - N/A   Clear
4:53 PM 81.0 °F 86.2 °F 73.9 °F 79% 29.86 in 10.0 mi WSW 6.9 mph - N/A   Clear
5:53 PM 80.1 °F 84.2 °F 73.0 °F 79% 29.87 in 10.0 mi SW 5.8 mph - N/A   Scattered Clouds
6:53 PM 80.1 °F 84.2 °F 73.0 °F 79% 29.88 in 10.0 mi SW 3.5 mph - N/A   Partly Cloudy
7:53 PM 80.1 °F 83.6 °F 71.1 °F 74% 29.91 in 10.0 mi WSW 4.6 mph - N/A   Partly Cloudy
8:53 PM 79.0 °F - 72.0 °F 79% 29.92 in 10.0 mi SSW 4.6 mph - N/A   Clear
9:53 PM 79.0 °F - 73.0 °F 82% 29.93 in 10.0 mi SW 3.5 mph - N/A   Scattered Clouds
10:53 PM 79.0 °F - 73.0 °F 82% 29.94 in 10.0 mi South 3.5 mph - N/A   Overcast
11:44 PM 78.8 °F - 73.4 °F 83% 29.93 in 10.0 mi SSW 4.6 mph - 0.01 in   Overcast
11:53 PM 78.1 °F - 73.0 °F 84% 29.93 in 7.0 mi South 8.1 mph - 0.01 in Rain Light Rain